Home > Weather > Reno > Past weeks

Flag for U.S.A. Weather for the Past 2 Weeks in Reno, Nevada, U.S.A.

Now
51 °F

Sunny.


Feels Like: 51 °F
Forecast: 23 / 48 °F
Wind: 3 mph from North

Location: Reno Tahoe International Airport

Current Time: Feb 7, 2016 at 1:56:40 PM

Latest Report: Feb 7, 2016 at 12:55 PM


Visibility: 10 mi

Pressure: 30.52 "Hg (25.87 "Hg at 1372m altitude)

Humidity: 42%

Dew point: 29 °F

Location of RenoLocation

Historic Weather in Reno — Graph

°F

Reno Temperature Yesterday

Maximum temperature yesterday: 52 °F (at 3:55 PM)
Minimum temperature yesterday: 29 °F (at 1:55 AM)
Average temperature yesterday: 39 °F

High & Low Weather Summary for the Past Weeks

 TemperatureHumidityPressure
High59 °F (Jan 29, 10:55 AM)92% (Jan 30, 3:55 AM)30.61 "Hg (Jan 30, 3:55 AM)
Low15 °F (Feb 2, 4:55 AM)33% (Jan 28, 2:55 PM)29.65 "Hg (Jan 31, 2:55 PM)
Average36 °F68%30.23 "Hg
* Reported Jan 23 11:55 AM — Feb 7 11:55 AM, Reno, Weather by CustomWeather, © 2016

Note: Actual official high and low records may vary slightly from our data, if they occured in-between our weather recording intervals... More about our weather records

Advertising

Reno Weather History for the Previous 24 Hours

 ConditionsComfort  
Time TempWeatherWind HumidityBarometerVisibility
11:55 AM
Sun, Feb 7
48 °FSunny.No wind44%30.57 "Hg10 mi
10:55 AM45 °FSunny.No wind51%30.59 "Hg10 mi
9:55 AM39 °FSunny.No wind62%30.61 "Hg10 mi
8:55 AM33 °FSunny.No wind75%30.59 "Hg10 mi
7:55 AM30 °FPassing clouds.No wind82%30.60 "Hg10 mi
6:55 AM27 °FPassing clouds.No wind89%30.58 "Hg10 mi
5:55 AM29 °FPassing clouds.No wind82%30.55 "Hg10 mi
4:55 AM28 °FPassing clouds.No wind81%30.53 "Hg10 mi
3:55 AM30 °FPassing clouds.3 mph79%30.50 "Hg10 mi
2:55 AM28 °FPassing clouds.5 mph85%30.50 "Hg10 mi
1:55 AM30 °FPassing clouds.No wind82%30.48 "Hg10 mi
12:55 AM31 °FPassing clouds.No wind79%30.49 "Hg10 mi
11:55 PM
Sat, Feb 6
34 °FPassing clouds.No wind70%30.48 "Hg10 mi
10:55 PM36 °FPassing clouds.No wind64%30.47 "Hg10 mi
9:55 PM37 °FPassing clouds.3 mph62%30.47 "Hg10 mi
8:55 PM39 °FPassing clouds.No wind60%30.47 "Hg10 mi
7:55 PM41 °FPassing clouds.5 mph55%30.46 "Hg10 mi
6:55 PM42 °FPassing clouds.No wind53%30.44 "Hg10 mi
5:55 PM47 °FClear.3 mph50%30.42 "Hg10 mi
4:55 PM51 °FPartly sunny.3 mph35%30.39 "Hg10 mi
3:55 PM52 °FPartly sunny.3 mph38%30.40 "Hg10 mi
2:55 PM51 °FPartly sunny.No wind38%30.41 "Hg10 mi
1:55 PM51 °FPartly sunny.No wind41%30.40 "Hg10 mi
Weather by CustomWeather, © 2016

See weather overviewHow to use our weather pages